[[{"header":{"parameterUnit":"m.s-1","parameterCategory":2,"la1":30.2991,"la2":30.254,"lo1":-89.0895,"lo2":-89.0444,"dx":0.0017,"dy":0.0017,"nx":28,"ny":28,"refTime":"2022-12-15T09:00:00:Z","depth":"0","parameterNumber":2,"parameterNumberName":"U-component_of_CURRENTS"},"data":[0,0,0,0,0,0,0,0,0,0,0,0,0,0,0,0,0,0,0,0,0,0,0,0,0,0,0,0,0,0,0,0,0,0,0,0,0,0,0,0,0,0,0,0,0,0,0,0,0,0,0,0,0,0,0,0,0,0,0.1608,0.1609,0,0.1605,0.1605,0.1605,0.159,0.159,0.159,0.159,0.157,0.157,0.1569,0,0,0,0,0,0,0,0,0,0,0,0,0,0.158,0.1581,0.1608,0.1609,0.1609,0.1605,0.1605,0.1605,0.159,0.159,0.159,0.159,0.157,0.157,0.1569,0,0,0,0,0,0,0,0,0,0,0,0,0,0.1585,0.1581,0.1608,0.1602,0.1602,0.1605,0.1605,0.1605,0.159,0.159,0.159,0.159,0.157,0.157,0.1569,0.1571,0,0,0.1568,0.1567,0,0,0,0,0,0,0,0,0.1584,0.1585,0.1603,0.1603,0.1602,0.1599,0.1588,0.1593,0.159,0.1593,0.159,0.1589,0.158,0.1578,0.1576,0.1571,0.157,0.1568,0.1567,0.1567,0.1567,0,0,0,0,0,0,0,0.1584,0.1585,0.1605,0.1603,0.1603,0.1592,0.1593,0.1589,0.1586,0.1593,0.1592,0.1595,0.1579,0.1577,0.1576,0.1569,0.1568,0.1567,0.1567,0.1567,0.1575,0.1576,0,0,0,0,0,0,0.159,0.1585,0.1606,0.1605,0.1594,0.1593,0.1594,0.1599,0.1587,0.1585,0.1595,0.1594,0.1578,0.1576,0.1575,0.159,0.1567,0.1566,0.1566,0.1575,0.1575,0.1576,0,0,0,0,0,0,0.1589,0.1592,0.1606,0.1596,0.1598,0.1594,0.1601,0.1599,0.1601,0.1589,0.1586,0.1599,0.1577,0.1575,0.1578,0.1589,0.1566,0.1566,0.1574,0.1575,0.1576,0.1612,0,0,0,0,0,0,0.1588,0.1591,0.1596,0.1597,0.1599,0.1615,0.1601,0.1599,0.1604,0.1603,0.1592,0.1589,0.1577,0.1579,0.1578,0.1588,0.1565,0.1573,0.1574,0.1575,0.1611,0.1614,0.1618,0,0,0,0,0,0.1587,0.1597,0.1596,0.1598,0.1605,0.1616,0.1616,0.1611,0.1605,0.161,0.1602,0.159,0.1585,0.1579,0.1577,0.1587,0.1573,0.1574,0.1575,0.1609,0.1614,0.1618,0,0,0,0,0,0,0.159,0.1597,0.1595,0.1608,0.1614,0.1614,0.1619,0.1616,0.1614,0.1612,0.1597,0.1595,0.1601,0.159,0.1585,0.1593,0.1576,0.1577,0.1603,0.1607,0.161,0.1632,0.1565,0,0,0,0,0,0.1593,0.1601,0.1607,0.1618,0.1622,0.1621,0.1624,0.1623,0.1622,0.1621,0.1614,0.1606,0.1605,0.1603,0.1598,0.1604,0.162,0.1608,0.1612,0.1615,0.1632,0.1663,0.1671,0.158,0.158,0.158,0,0,0.1596,0.1603,0.1606,0.1619,0.1622,0.1633,0.1622,0.1632,0.1641,0.162,0.1628,0.162,0.1609,0.1615,0.1617,0.1607,0.1651,0.1617,0.162,0.1635,0.1665,0.1674,0.1682,0.1581,0.1581,0.1581,0,0,0.1609,0.1615,0.1624,0.1633,0.1643,0.1644,0.165,0.1654,0.1656,0.1665,0.1651,0.1652,0.1647,0.1643,0.1639,0.1661,0.167,0.1658,0.1693,0.1723,0.1731,0.1738,0.178,0.179,0.1659,0.1659,0.1659,0,0.1611,0.1627,0.163,0.1644,0.1653,0.1652,0.1667,0.1672,0.1676,0.1687,0.1672,0.1682,0.1661,0.1681,0.1683,0.1669,0.1698,0.1676,0.1729,0.1737,0.1744,0.1784,0.1795,0.1661,0.1661,0.166,0.166,0,0.1631,0.1645,0.1655,0.1671,0.1681,0.1695,0.1704,0.1715,0.1716,0.1724,0.1746,0.1727,0.1737,0.1724,0.1708,0.1747,0.1755,0.1732,0.1721,0.1755,0.1795,0.1807,0.1664,0.1663,0.1662,0.1662,0,0,0.1632,0.1661,0.1664,0.1678,0.1697,0.1708,0.1731,0.1755,0.1783,0.1783,0.182,0.1805,0.1808,0.1805,0.1788,0.1805,0.1863,0.1794,0.1795,0.1841,0.1954,0.1987,0.2003,0.1857,0.1859,0.186,0.1966,0,0.1645,0.1675,0.1687,0.1716,0.1732,0.1746,0.1772,0.1795,0.1814,0.1849,0.1847,0.1871,0.1836,0.1845,0.186,0.1866,0.1895,0.1839,0.1909,0.1912,0.1942,0.2017,0.2083,0.2186,0.1977,0.1979,0.198,0,0.1657,0.1677,0.1705,0.1746,0.1755,0.1774,0.1822,0.1847,0.1897,0.1913,0.1945,0.1953,0.1984,0.1941,0.1995,0.1968,0.1972,0.1971,0.1974,0.2004,0.1967,0.2116,0.2214,0.2271,0.1997,0.1996,0.1995,0,0.1653,0.169,0.1713,0.1725,0.1769,0.179,0.1818,0.1868,0.19,0.1963,0.1999,0.204,0.2066,0.2084,0.2091,0.2054,0.2156,0.2098,0.2136,0.2138,0.2209,0.2214,0.2377,0.2144,0.2144,0.2144,0.2143,0,0.1663,0.1684,0.1713,0.1728,0.1766,0.1797,0.1846,0.1885,0.1945,0.1996,0.2035,0.2088,0.2105,0.216,0.2147,0.2204,0.2208,0.2177,0.2179,0.2223,0.2228,0.2289,0.2271,0.2148,0.2147,0.2146,0.2145,0,0.1661,0.168,0.1706,0.1749,0.1763,0.1791,0.1852,0.189,0.1958,0.2027,0.2053,0.2144,0.2229,0.2257,0.23,0.2288,0.2307,0.233,0.2391,0.2398,0.2465,0.2445,0.2394,0.2311,0.2398,0.24,0.2401,0,0.1666,0.1676,0.171,0.1721,0.1741,0.1782,0.1813,0.1882,0.1924,0.2058,0.2092,0.2213,0.2299,0.2412,0.244,0.2486,0.2384,0.2541,0.2466,0.2521,0.2499,0.2303,0.222,0.2578,0.2581,0.2583,0.2585,0,0.1664,0.1669,0.1686,0.1711,0.1735,0.1771,0.1822,0.1854,0.1947,0.203,0.2153,0.2246,0.2403,0.2521,0.2602,0.2608,0.2505,0.2585,0.2636,0.2667,0.2471,0.2376,0.2455,0.2605,0.2603,0.2601,0.26,0.26,0.1652,0.1657,0.1669,0.1699,0.1723,0.1757,0.1778,0.1847,0.1929,0.2063,0.2165,0.2344,0.2589,0.2733,0.2709,0.2821,0.2619,0.2826,0.2803,0.2601,0.2506,0.2634,0.2777,0.2776,0.2775,0.2774,0.2774,0,0.1633,0.164,0.1659,0.1683,0.1702,0.1729,0.178,0.1808,0.1893,0.2093,0.2223,0.2574,0.2768,0.2912,0.3136,0.3118,0.2864,0.3061,0.2852,0.2756,0.2932,0.2933,0.3124,0.3124,0.3123,0.3123,0.3123,0.3123,0.1619,0.1622,0.164,0.166,0.1677,0.168,0.1702,0.1765,0.1902,0.2158,0.2404,0.2596,0.3002,0.3365,0.3504,0.3396,0.3149,0.3041,0.2895,0.3149,0.3125,0.3102,0.3103,0.3327,0.3327,0.2651,0.2647,0.2644]},{"header":{"parameterUnit":"m.s-1","parameterCategory":2,"la1":30.2991,"la2":30.254,"lo1":-89.0895,"lo2":-89.0444,"dx":0.0017,"dy":0.0017,"nx":28,"ny":28,"refTime":"2022-12-15T09:00:00:Z","depth":"0","parameterNumber":3,"parameterNumberName":"V-component_of_CURRENTS"},"data":[0,0,0,0,0,0,0,0,0,0,0,0,0,0,0,0,0,0,0,0,0,0,0,0,0,0,0,0,0,0,0,0,0,0,0,0,0,0,0,0,0,0,0,0,0,0,0,0,0,0,0,0,0,0,0,0,0,0,-0.0195,-0.0195,0,-0.0247,-0.0248,-0.0248,-0.028,-0.0281,-0.0281,-0.0281,-0.0366,-0.0368,-0.037,0,0,0,0,0,0,0,0,0,0,0,0,0,-0.0167,-0.0167,-0.0195,-0.0195,-0.0196,-0.0247,-0.0248,-0.0249,-0.028,-0.0281,-0.0281,-0.0281,-0.0365,-0.0367,-0.037,0,0,0,0,0,0,0,0,0,0,0,0,0,-0.0195,-0.0167,-0.0195,-0.0218,-0.0221,-0.0247,-0.0248,-0.0249,-0.028,-0.0281,-0.0281,-0.0281,-0.0364,-0.0367,-0.037,-0.0386,0,0,-0.038,-0.0381,0,0,0,0,0,0,0,0,-0.0194,-0.0196,-0.0214,-0.0216,-0.0219,-0.0257,-0.0269,-0.0296,-0.028,-0.0258,-0.0281,-0.0281,-0.0332,-0.0338,-0.0347,-0.039,-0.0393,-0.038,-0.0382,-0.0384,-0.0385,0,0,0,0,0,0,0,-0.0192,-0.0194,-0.0216,-0.0215,-0.0218,-0.0241,-0.0245,-0.0275,-0.0294,-0.026,-0.0262,-0.0268,-0.0334,-0.0344,-0.0349,-0.0394,-0.038,-0.0383,-0.0385,-0.0386,-0.0457,-0.0457,0,0,0,0,0,0,-0.0182,-0.0192,-0.0214,-0.0217,-0.0207,-0.0241,-0.0246,-0.0245,-0.0293,-0.03,-0.0267,-0.0269,-0.0338,-0.0346,-0.0353,-0.0372,-0.0384,-0.0387,-0.0388,-0.0457,-0.0457,-0.0457,0,0,0,0,0,0,-0.0181,-0.0183,-0.0212,-0.0206,-0.0212,-0.0241,-0.0241,-0.0246,-0.0256,-0.0298,-0.0306,-0.0272,-0.0339,-0.0348,-0.0375,-0.0376,-0.0388,-0.0391,-0.0457,-0.0457,-0.0457,-0.0413,0,0,0,0,0,0,-0.018,-0.0182,-0.0177,-0.0205,-0.0212,-0.022,-0.0241,-0.0247,-0.0259,-0.0262,-0.0305,-0.0313,-0.034,-0.037,-0.0378,-0.0381,-0.0393,-0.0457,-0.0457,-0.0457,-0.0415,-0.0411,-0.0409,0,0,0,0,0,-0.0179,-0.017,-0.0177,-0.0179,-0.0204,-0.0219,-0.0224,-0.0247,-0.0259,-0.0258,-0.0289,-0.0312,-0.0375,-0.0372,-0.0382,-0.0386,-0.0457,-0.0457,-0.0457,-0.0416,-0.0412,-0.0409,0,0,0,0,0,0,-0.0158,-0.0174,-0.0181,-0.0178,-0.0193,-0.0224,-0.0226,-0.0244,-0.0267,-0.0271,-0.0312,-0.0322,-0.0346,-0.0371,-0.0367,-0.0406,-0.042,-0.0422,-0.0385,-0.0382,-0.038,-0.0373,-0.0396,0,0,0,0,0,-0.015,-0.0146,-0.0167,-0.0165,-0.0169,-0.0197,-0.0207,-0.0221,-0.0247,-0.0257,-0.0288,-0.0322,-0.0353,-0.0371,-0.0399,-0.0421,-0.0442,-0.043,-0.0427,-0.0424,-0.0425,-0.0455,-0.0455,-0.0457,-0.0457,-0.0457,0,0,-0.0142,-0.015,-0.0148,-0.016,-0.0174,-0.0176,-0.0203,-0.0212,-0.0219,-0.0264,-0.028,-0.0313,-0.0357,-0.0379,-0.0393,-0.0401,-0.0432,-0.0424,-0.0421,-0.0424,-0.0455,-0.0455,-0.0455,-0.0457,-0.0457,-0.0457,0,0,-0.0124,-0.0129,-0.0119,-0.0126,-0.0141,-0.0159,-0.0159,-0.0185,-0.02,-0.022,-0.0255,-0.0286,-0.0331,-0.0362,-0.0385,-0.0385,-0.0415,-0.0394,-0.0378,-0.0406,-0.0406,-0.0407,-0.0421,-0.0423,-0.0394,-0.0394,-0.0394,0,-0.0116,-0.0101,-0.012,-0.0112,-0.0113,-0.0148,-0.0138,-0.016,-0.0192,-0.0203,-0.0218,-0.0287,-0.0324,-0.036,-0.0363,-0.0379,-0.0395,-0.0385,-0.0402,-0.0403,-0.0404,-0.0419,-0.0422,-0.0392,-0.0392,-0.0392,-0.0393,0,-0.0087,-0.0076,-0.007,-0.007,-0.0077,-0.0073,-0.0101,-0.011,-0.0135,-0.0162,-0.0197,-0.025,-0.0288,-0.0309,-0.0341,-0.0368,-0.0376,-0.0392,-0.0408,-0.0401,-0.0417,-0.0421,-0.0389,-0.039,-0.039,-0.0391,0,0,-0.0067,-0.0052,-0.0049,-0.0036,-0.005,-0.0052,-0.0061,-0.0078,-0.0078,-0.0127,-0.0134,-0.0208,-0.0237,-0.0265,-0.0308,-0.0345,-0.0368,-0.0371,-0.0374,-0.038,-0.0421,-0.0422,-0.0426,-0.0387,-0.0388,-0.0388,-0.0425,0,-0.0037,-0.0004,-0.0011,0.0015,0.0031,0.0005,0.0007,-0.0017,-0.0048,-0.0062,-0.0133,-0.0158,-0.0221,-0.0233,-0.0282,-0.0344,-0.0378,-0.0356,-0.0432,-0.0434,-0.0432,-0.0431,-0.0436,-0.0469,-0.0429,-0.0429,-0.043,0,-0.0004,0.0018,0.0052,0.0074,0.0079,0.0085,0.0086,0.0081,0.0044,0.002,-0.0031,-0.0079,-0.0145,-0.0191,-0.0304,-0.0285,-0.035,-0.0404,-0.0407,-0.0427,-0.0442,-0.0473,-0.0478,-0.063,-0.0436,-0.0435,-0.0435,0,0.0031,0.006,0.0092,0.0099,0.0115,0.0126,0.0132,0.011,0.0122,0.0075,0.0082,-0.0017,-0.0041,-0.0151,-0.027,-0.0284,-0.0384,-0.0413,-0.0476,-0.0476,-0.0506,-0.0507,-0.0665,-0.0488,-0.0488,-0.0488,-0.0488,0,0.0067,0.0095,0.0115,0.0137,0.0185,0.0174,0.0215,0.0202,0.0203,0.0231,0.0133,0.0136,-0.0032,-0.0109,-0.0237,-0.0362,-0.0358,-0.0473,-0.0488,-0.0489,-0.0489,-0.0644,-0.0747,-0.0489,-0.0489,-0.0489,-0.0489,0,0.0099,0.0112,0.0158,0.0191,0.0205,0.024,0.0289,0.0323,0.0308,0.0344,0.034,0.0258,0.0152,-0.0013,-0.0178,-0.0296,-0.0531,-0.0472,-0.0455,-0.0468,-0.0674,-0.0774,-0.0942,-0.1068,-0.055,-0.0551,-0.0551,0,0.0118,0.0145,0.0203,0.0243,0.0262,0.0315,0.0366,0.0375,0.0418,0.0426,0.0459,0.0372,0.0324,0.0079,-0.016,-0.0376,-0.0542,-0.051,-0.0548,-0.0689,-0.0813,-0.0868,-0.0968,-0.0568,-0.0568,-0.0569,-0.0569,0,0.016,0.0181,0.0225,0.0311,0.037,0.0442,0.0512,0.0566,0.059,0.0626,0.0656,0.062,0.0376,0.0152,-0.0148,-0.0314,-0.065,-0.0521,-0.0683,-0.0856,-0.0913,-0.1039,-0.0532,-0.0572,-0.0571,-0.0571,-0.0571,-0.0571,0.0194,0.0238,0.0303,0.0387,0.0463,0.0567,0.0645,0.072,0.0811,0.0888,0.0828,0.0833,0.0481,0.0062,-0.021,-0.066,-0.0688,-0.0783,-0.0894,-0.0936,-0.1065,-0.0553,-0.0601,-0.0601,-0.0601,-0.0601,-0.0601,0,0.0233,0.0292,0.0376,0.0486,0.0591,0.0615,0.0746,0.0837,0.0962,0.104,0.1068,0.0949,0.0488,0.0038,-0.0579,-0.0937,-0.1112,-0.1144,-0.1248,-0.1338,-0.0889,-0.0897,-0.0992,-0.0992,-0.0991,-0.0991,-0.0991,-0.0991,0.0256,0.0346,0.0401,0.0583,0.0666,0.0816,0.09,0.1025,0.1124,0.1265,0.1322,0.1313,0.1034,-0.0181,-0.1045,-0.1294,-0.1587,-0.1633,-0.1805,-0.1507,-0.1482,-0.1458,-0.1489,-0.1707,-0.1708,-0.221,-0.2215,-0.2219]}],[{"header":{"parameterUnit":"m.s-1","parameterCategory":2,"la1":30.2991,"la2":30.254,"lo1":-89.0895,"lo2":-89.0444,"dx":0.0017,"dy":0.0017,"nx":28,"ny":28,"refTime":"2022-12-15T09:00:00:Z","depth":"2","parameterNumber":2,"parameterNumberName":"U-component_of_CURRENTS"},"data":[0,0,0,0,0,0,0,0,0,0,0,0,0,0,0,0,0,0,0,0,0,0,0,0,0,0,0,0,0,0,0,0,0,0,0,0,0,0,0,0,0,0,0,0,0,0,0,0,0,0,0,0,0,0,0,0,0,0,0.1548,0.1548,0,0.1546,0.1546,0.1546,0.1533,0.1533,0.1533,0.1533,0.1514,0.1513,0.1513,0,0,0,0,0,0,0,0,0,0,0,0,0,0.1521,0.1521,0.1548,0.1548,0.1549,0.1546,0.1546,0.1545,0.1533,0.1533,0.1533,0.1532,0.1514,0.1513,0.1513,0,0,0,0,0,0,0,0,0,0,0,0,0,0.1525,0.1522,0.1548,0.1543,0.1543,0.1546,0.1546,0.1545,0.1533,0.1533,0.1533,0.1532,0.1514,0.1513,0.1513,0.1514,0,0,0.1511,0.1511,0,0,0,0,0,0,0,0,0.1525,0.1526,0.1544,0.1544,0.1543,0.1541,0.1529,0.1535,0.1533,0.1535,0.1533,0.1532,0.1523,0.1521,0.1519,0.1513,0.1512,0.1511,0.1511,0.1511,0.151,0,0,0,0,0,0,0,0.1525,0.1526,0.1546,0.1544,0.1544,0.1534,0.1534,0.153,0.1528,0.1535,0.1534,0.1537,0.1522,0.152,0.1519,0.1512,0.1511,0.1511,0.151,0.151,0.1519,0.1519,0,0,0,0,0,0,0.153,0.1526,0.1546,0.1546,0.1535,0.1535,0.1535,0.1541,0.1529,0.1527,0.1537,0.1536,0.1521,0.1519,0.1518,0.1534,0.1511,0.151,0.151,0.1518,0.1519,0.1519,0,0,0,0,0,0,0.153,0.1532,0.1546,0.1537,0.1538,0.1536,0.1542,0.1541,0.1544,0.1531,0.1529,0.1542,0.1521,0.1519,0.1522,0.1533,0.151,0.1509,0.1517,0.1518,0.1519,0.1556,0,0,0,0,0,0,0.1529,0.1532,0.1536,0.1537,0.1539,0.1555,0.1542,0.1541,0.1546,0.1545,0.1535,0.1532,0.152,0.1523,0.1521,0.1531,0.1509,0.1517,0.1518,0.1519,0.1554,0.1558,0.1562,0,0,0,0,0,0.1528,0.1537,0.1537,0.1539,0.1546,0.1556,0.1556,0.1551,0.1547,0.1552,0.1545,0.1533,0.1528,0.1523,0.1521,0.1531,0.1516,0.1517,0.1519,0.1553,0.1558,0.1562,0,0,0,0,0,0,0.153,0.1537,0.1536,0.1548,0.1555,0.1554,0.156,0.1557,0.1556,0.1555,0.154,0.1538,0.1545,0.1534,0.1528,0.1537,0.152,0.1521,0.1546,0.1551,0.1554,0.1576,0.1508,0,0,0,0,0,0.1533,0.1541,0.1547,0.1558,0.1562,0.1562,0.1565,0.1564,0.1564,0.1563,0.1557,0.155,0.1548,0.1546,0.1541,0.1547,0.1563,0.1552,0.1556,0.1559,0.1576,0.1606,0.1614,0.1523,0.1523,0.1523,0,0,0.1537,0.1543,0.1547,0.1559,0.1562,0.1573,0.1563,0.1573,0.1583,0.1562,0.1571,0.1563,0.1552,0.1558,0.156,0.1551,0.1595,0.1561,0.1563,0.1579,0.1608,0.1617,0.1625,0.1524,0.1524,0.1524,0,0,0.1549,0.1555,0.1565,0.1573,0.1584,0.1585,0.1591,0.1596,0.1598,0.1607,0.1595,0.1595,0.1591,0.1586,0.1583,0.1605,0.1614,0.1602,0.1638,0.1667,0.1675,0.1682,0.1723,0.1734,0.1603,0.1603,0.1603,0,0.1553,0.1568,0.157,0.1584,0.1594,0.1593,0.1608,0.1613,0.1618,0.163,0.1616,0.1626,0.1605,0.1624,0.1627,0.1614,0.1641,0.1621,0.1673,0.1681,0.1688,0.1728,0.1739,0.1605,0.1605,0.1605,0.1605,0,0.1572,0.1585,0.1595,0.1611,0.1621,0.1636,0.1645,0.1657,0.1659,0.1667,0.1689,0.1671,0.1682,0.1669,0.1653,0.1691,0.17,0.1676,0.1665,0.1699,0.1739,0.175,0.1608,0.1607,0.1607,0.1606,0,0,0.1574,0.1602,0.1605,0.1618,0.1637,0.1649,0.1672,0.1697,0.1725,0.1726,0.1763,0.175,0.1753,0.175,0.1733,0.175,0.1808,0.1739,0.174,0.1786,0.1897,0.1926,0.1941,0.1801,0.1803,0.1804,0.1909,0,0.1588,0.1617,0.1628,0.1657,0.1672,0.1686,0.1713,0.1737,0.1756,0.1792,0.179,0.1815,0.1781,0.1791,0.1806,0.1811,0.1839,0.1784,0.1852,0.1855,0.1881,0.1955,0.1774,0.1855,0.192,0.1922,0.1923,0,0.1599,0.1619,0.1647,0.1686,0.1696,0.1715,0.1764,0.179,0.1839,0.1857,0.1889,0.1897,0.1929,0.1886,0.194,0.1913,0.1916,0.1915,0.1918,0.1943,0.1905,0.1829,0.1873,0.1941,0.194,0.1939,0.1937,0,0.1596,0.1632,0.1655,0.1667,0.171,0.1732,0.176,0.1811,0.1843,0.1907,0.1943,0.1984,0.201,0.2029,0.2034,0.1998,0.2098,0.204,0.2074,0.2076,0.1936,0.1923,0.2086,0.2086,0.2086,0.2085,0.2085,0,0.1607,0.1627,0.1657,0.1671,0.1709,0.174,0.179,0.1829,0.1889,0.1939,0.1979,0.2031,0.2049,0.2102,0.2089,0.2143,0.2149,0.2115,0.2116,0.1945,0.1933,0.2007,0.1996,0.2089,0.2088,0.2088,0.2087,0,0.1605,0.1624,0.165,0.1692,0.1707,0.1736,0.1796,0.1834,0.1902,0.197,0.1996,0.2085,0.2169,0.2197,0.2239,0.2225,0.2256,0.2264,0.2078,0.2057,0.2199,0.2189,0.2324,0.2326,0.2328,0.2329,0.2331,0,0.161,0.1621,0.1655,0.1666,0.1686,0.1728,0.1758,0.1827,0.1868,0.2,0.2033,0.2152,0.2228,0.2337,0.231,0.2339,0.2336,0.221,0.2103,0.2242,0.2229,0.2216,0.2204,0.1925,0.1923,0.1921,0.192,0,0.161,0.1615,0.1632,0.1657,0.1682,0.1717,0.1768,0.1798,0.1889,0.1963,0.2083,0.2167,0.2271,0.2243,0.2297,0.2269,0.2194,0.218,0.2374,0.1907,0.1878,0.1862,0.186,0.1904,0.1906,0.1907,0.1908,0.1908,0.1598,0.1604,0.1616,0.1647,0.167,0.1702,0.1722,0.1757,0.1825,0.1887,0.2022,0.207,0.2129,0.2118,0.2082,0.2038,0.2168,0.207,0.207,0.2072,0.2022,0.2,0.2039,0.2041,0.2043,0.2045,0.2046,0,0.1566,0.1588,0.1607,0.1631,0.1627,0.1676,0.1723,0.1688,0.1718,0.1783,0.1848,0.1747,0.179,0.1836,0.1752,0.1793,0.1692,0.1731,0.1573,0.1594,0.1611,0.1529,0.1419,0.1417,0.1414,0.1412,0,0,0.1549,0.1543,0.1561,0.1566,0.1597,0.1559,0.1577,0.1533,0.1531,0.1485,0.1496,0.1641,0.1782,0.155,0.1558,0.1477,0.1499,0.1415,0.1926,0.1759,0.1772,0.183,0.1734,0,0,0,0,0]},{"header":{"parameterUnit":"m.s-1","parameterCategory":2,"la1":30.2991,"la2":30.254,"lo1":-89.0895,"lo2":-89.0444,"dx":0.0017,"dy":0.0017,"nx":28,"ny":28,"refTime":"2022-12-15T09:00:00:Z","depth":"2","parameterNumber":3,"parameterNumberName":"V-component_of_CURRENTS"},"data":[0,0,0,0,0,0,0,0,0,0,0,0,0,0,0,0,0,0,0,0,0,0,0,0,0,0,0,0,0,0,0,0,0,0,0,0,0,0,0,0,0,0,0,0,0,0,0,0,0,0,0,0,0,0,0,0,0,0,-0.0134,-0.0135,0,-0.0186,-0.0187,-0.0187,-0.0221,-0.0221,-0.0221,-0.0221,-0.0306,-0.0308,-0.0311,0,0,0,0,0,0,0,0,0,0,0,0,0,-0.0107,-0.0107,-0.0134,-0.0135,-0.0135,-0.0186,-0.0187,-0.0188,-0.0221,-0.0221,-0.0221,-0.0221,-0.0306,-0.0308,-0.0311,0,0,0,0,0,0,0,0,0,0,0,0,0,-0.0135,-0.0107,-0.0134,-0.0158,-0.0161,-0.0186,-0.0187,-0.0188,-0.0221,-0.0221,-0.0221,-0.0222,-0.0305,-0.0308,-0.0311,-0.0325,0,0,-0.0321,-0.0322,0,0,0,0,0,0,0,0,-0.0133,-0.0136,-0.0154,-0.0156,-0.0159,-0.0197,-0.0209,-0.0235,-0.0221,-0.0198,-0.0221,-0.0222,-0.0273,-0.0278,-0.0287,-0.0329,-0.0332,-0.0321,-0.0323,-0.0324,-0.0325,0,0,0,0,0,0,0,-0.0131,-0.0134,-0.0155,-0.0154,-0.0158,-0.0181,-0.0185,-0.0214,-0.0234,-0.02,-0.0203,-0.0208,-0.0274,-0.0284,-0.029,-0.0334,-0.0321,-0.0324,-0.0326,-0.0327,-0.0396,-0.0396,0,0,0,0,0,0,-0.0122,-0.0132,-0.0153,-0.0156,-0.0147,-0.0181,-0.0186,-0.0185,-0.0233,-0.024,-0.0208,-0.0209,-0.0279,-0.0286,-0.0293,-0.0313,-0.0324,-0.0327,-0.0329,-0.0396,-0.0396,-0.0396,0,0,0,0,0,0,-0.0121,-0.0123,-0.0151,-0.0146,-0.0151,-0.0181,-0.018,-0.0186,-0.0197,-0.0238,-0.0246,-0.0213,-0.0279,-0.0288,-0.0315,-0.0317,-0.0328,-0.0331,-0.0396,-0.0396,-0.0396,-0.0353,0,0,0,0,0,0,-0.012,-0.0122,-0.0117,-0.0145,-0.0151,-0.0158,-0.018,-0.0187,-0.02,-0.0202,-0.0246,-0.0254,-0.028,-0.031,-0.0318,-0.0321,-0.0334,-0.0396,-0.0396,-0.0396,-0.0355,-0.0352,-0.0349,0,0,0,0,0,-0.0119,-0.011,-0.0117,-0.0119,-0.0143,-0.0158,-0.0163,-0.0186,-0.0199,-0.0198,-0.023,-0.0253,-0.0316,-0.0313,-0.0322,-0.0326,-0.0396,-0.0396,-0.0396,-0.0356,-0.0352,-0.0349,0,0,0,0,0,0,-0.0099,-0.0114,-0.0121,-0.0118,-0.0133,-0.0163,-0.0166,-0.0184,-0.0207,-0.0212,-0.0252,-0.0262,-0.0287,-0.0311,-0.0307,-0.0346,-0.036,-0.0362,-0.0326,-0.0323,-0.032,-0.0314,-0.0336,0,0,0,0,0,-0.0091,-0.0087,-0.0107,-0.0105,-0.011,-0.0137,-0.0147,-0.0162,-0.0187,-0.0198,-0.0228,-0.0262,-0.0294,-0.0311,-0.0339,-0.036,-0.0382,-0.0369,-0.0367,-0.0364,-0.0366,-0.0395,-0.0395,-0.0396,-0.0396,-0.0396,0,0,-0.0083,-0.0091,-0.0089,-0.01,-0.0114,-0.0116,-0.0144,-0.0153,-0.016,-0.0204,-0.0221,-0.0253,-0.0297,-0.0319,-0.0333,-0.034,-0.0373,-0.0364,-0.0361,-0.0365,-0.0395,-0.0395,-0.0395,-0.0396,-0.0396,-0.0396,0,0,-0.0065,-0.0071,-0.0061,-0.0067,-0.0082,-0.01,-0.01,-0.0126,-0.0142,-0.0162,-0.0197,-0.0228,-0.0272,-0.0303,-0.0326,-0.0325,-0.0356,-0.0335,-0.0319,-0.0347,-0.0347,-0.0348,-0.0364,-0.0366,-0.0335,-0.0334,-0.0334,0,-0.0059,-0.0043,-0.0061,-0.0053,-0.0055,-0.0089,-0.008,-0.0102,-0.0134,-0.0145,-0.0161,-0.0228,-0.0265,-0.03,-0.0304,-0.032,-0.0336,-0.0327,-0.0343,-0.0344,-0.0345,-0.0362,-0.0365,-0.0332,-0.0333,-0.0333,-0.0333,0,-0.003,-0.0018,-0.0013,-0.0012,-0.0019,-0.0015,-0.0044,-0.0053,-0.0079,-0.0105,-0.0141,-0.0193,-0.0231,-0.0252,-0.0282,-0.031,-0.0318,-0.0334,-0.0349,-0.0342,-0.0361,-0.0364,-0.0329,-0.033,-0.0331,-0.0331,0,0,-0.0011,0.0004,0.0008,0.0021,0.0007,0.0005,-0.0004,-0.0022,-0.0022,-0.0071,-0.0079,-0.0152,-0.0181,-0.0209,-0.0251,-0.0287,-0.0312,-0.0314,-0.0316,-0.0325,-0.0366,-0.0367,-0.0372,-0.033,-0.033,-0.0331,-0.0371,0,0.0018,0.0051,0.0045,0.0071,0.0086,0.006,0.0062,0.0039,0.0007,-0.0008,-0.0078,-0.0103,-0.0165,-0.0178,-0.0226,-0.0287,-0.0322,-0.0299,-0.0376,-0.0378,-0.0376,-0.0377,-0.0344,-0.0378,-0.0375,-0.0376,-0.0376,0,0.0051,0.0073,0.0107,0.0129,0.0133,0.0139,0.0139,0.0135,0.0097,0.0072,0.0022,-0.0027,-0.0092,-0.0137,-0.025,-0.0231,-0.0296,-0.035,-0.0352,-0.0373,-0.0387,-0.0387,-0.0385,-0.0383,-0.0383,-0.0382,-0.0382,0,0.0084,0.0114,0.0145,0.0152,0.0168,0.0179,0.0184,0.0162,0.0174,0.0125,0.0131,0.0033,0.0008,-0.0101,-0.0219,-0.0232,-0.0333,-0.0361,-0.0424,-0.0424,-0.0423,-0.0422,-0.0437,-0.0436,-0.0436,-0.0436,-0.0436,0,0.012,0.0147,0.0168,0.019,0.0237,0.0226,0.0265,0.0252,0.0251,0.0278,0.0181,0.0183,0.0017,-0.0061,-0.0188,-0.0313,-0.0309,-0.0422,-0.0438,-0.0405,-0.0403,-0.0432,-0.0431,-0.0438,-0.0437,-0.0437,-0.0437,0,0.0151,0.0163,0.0209,0.0242,0.0256,0.029,0.0338,0.0371,0.0354,0.0389,0.0384,0.0302,0.0194,0.0031,-0.0134,-0.0249,-0.0382,-0.0425,-0.0371,-0.0381,-0.0462,-0.0459,-0.0504,-0.0505,-0.0505,-0.0505,-0.0506,0,0.0168,0.0196,0.0253,0.0293,0.0311,0.0363,0.0413,0.0421,0.0463,0.0468,0.05,0.0411,0.0362,0.0117,-0.0108,-0.0321,-0.0363,-0.0427,-0.0458,-0.046,-0.0471,-0.0467,-0.0462,-0.0435,-0.0435,-0.0434,-0.0434,0,0.021,0.023,0.0274,0.0358,0.0416,0.0488,0.0556,0.0609,0.0632,0.0665,0.0692,0.0654,0.042,0.021,-0.0084,-0.0235,-0.0397,-0.0428,-0.0443,-0.0421,-0.0398,-0.0407,-0.0405,-0.0432,-0.0432,-0.0432,-0.0432,-0.0432,0.0242,0.0285,0.0349,0.0432,0.0507,0.061,0.0687,0.0763,0.0852,0.0923,0.0852,0.0817,0.055,0.0192,-0.0079,-0.0363,-0.0368,-0.0464,-0.0464,-0.0464,-0.0447,-0.0426,-0.0461,-0.0461,-0.0461,-0.0462,-0.0462,0,0.029,0.0337,0.042,0.053,0.0643,0.0657,0.0786,0.0884,0.101,0.105,0.1066,0.0851,0.058,0.0275,-0.0135,-0.039,-0.0419,-0.0472,-0.0449,-0.0449,-0.045,-0.0432,-0.0443,-0.0443,-0.0444,-0.0444,0,0,0.0316,0.041,0.0464,0.0646,0.0718,0.0876,0.0959,0.1091,0.1164,0.1242,0.1215,0.1096,0.0703,0.0419,0.0054,-0.0185,-0.0254,-0.0236,-0.0224,-0.0153,-0.015,-0.042,-0.039,0,0,0,0,0]}],[{"header":{"parameterUnit":"m.s-1","parameterCategory":2,"la1":30.2991,"la2":30.254,"lo1":-89.0895,"lo2":-89.0444,"dx":0.0017,"dy":0.0017,"nx":28,"ny":28,"refTime":"2022-12-15T09:00:00:Z","depth":"4","parameterNumber":2,"parameterNumberName":"U-component_of_CURRENTS"},"data":[0,0,0,0,0,0,0,0,0,0,0,0,0,0,0,0,0,0,0,0,0,0,0,0,0,0,0,0,0,0,0,0,0,0,0,0,0,0,0,0,0,0,0,0,0,0,0,0,0,0,0,0,0,0,0,0,0,0,0.0574,0.0574,0,0.0618,0.0619,0.0619,0.0686,0.0687,0.0689,0.069,0.0787,0.0789,0.079,0,0,0,0,0,0,0,0,0,0,0,0,0,0.0512,0.0513,0.0574,0.0574,0.0575,0.0618,0.0619,0.0619,0.0686,0.0687,0.0689,0.069,0.0787,0.0789,0.079,0,0,0,0,0,0,0,0,0,0,0,0,0,0.0546,0.0513,0.0574,0.0613,0.0616,0.0618,0.0619,0.062,0.0686,0.0687,0.0689,0.0691,0.0786,0.0788,0.0791,0.0772,0,0,0.0798,0.0799,0,0,0,0,0,0,0,0,0.0544,0.0549,0.0606,0.061,0.0614,0.0648,0.0633,0.0673,0.0685,0.066,0.069,0.0691,0.0744,0.075,0.0755,0.0777,0.0781,0.0798,0.08,0.0801,0.0801,0,0,0,0,0,0,0,0.0542,0.0547,0.0592,0.0607,0.0611,0.0616,0.0623,0.064,0.0694,0.0663,0.0667,0.067,0.0747,0.0752,0.0758,0.0782,0.0798,0.08,0.0802,0.0803,0.091,0.0912,0,0,0,0,0,0,0.0535,0.0545,0.0591,0.0594,0.0582,0.0615,0.0624,0.0636,0.0693,0.0702,0.0669,0.0673,0.0747,0.0755,0.0761,0.0839,0.0801,0.0803,0.0804,0.0909,0.0911,0.0912,0,0,0,0,0,0,0.0533,0.0539,0.0589,0.0569,0.0576,0.0615,0.0628,0.0636,0.0682,0.0697,0.0708,0.0711,0.0749,0.0758,0.0822,0.084,0.0804,0.0806,0.0907,0.0909,0.0911,0.0933,0,0,0,0,0,0,0.0532,0.0538,0.0552,0.0569,0.0576,0.0622,0.0627,0.0636,0.0678,0.0685,0.0736,0.0744,0.0751,0.0818,0.0824,0.0843,0.0808,0.0905,0.0908,0.0911,0.093,0.0936,0.094,0,0,0,0,0,0.0529,0.0541,0.0552,0.0558,0.0592,0.0623,0.0629,0.0661,0.0679,0.0708,0.0747,0.0745,0.0839,0.0822,0.0828,0.0848,0.0904,0.0907,0.091,0.0928,0.0935,0.094,0,0,0,0,0,0,0.0526,0.0549,0.0562,0.0582,0.0615,0.0635,0.0656,0.068,0.0731,0.0743,0.0767,0.0778,0.0839,0.0845,0.0825,0.0888,0.0869,0.0874,0.0881,0.0887,0.0892,0.0909,0.081,0,0,0,0,0,0.0527,0.0544,0.0571,0.0592,0.0607,0.0638,0.0657,0.0681,0.0719,0.0744,0.0783,0.0818,0.0848,0.0872,0.09,0.0935,0.0949,0.0952,0.0957,0.096,0.098,0.1013,0.1022,0.0923,0.0923,0.0923,0,0,0.0529,0.0545,0.0555,0.0592,0.0615,0.0644,0.0656,0.0693,0.0728,0.0744,0.0816,0.0842,0.0864,0.0907,0.0933,0.092,0.0997,0.0965,0.0968,0.0986,0.1017,0.1027,0.1035,0.0925,0.0925,0.0924,0,0,0.0539,0.0561,0.0579,0.0604,0.0642,0.0663,0.0684,0.0729,0.0765,0.0827,0.0844,0.0889,0.0944,0.0958,0.0969,0.1018,0.1024,0.1028,0.1063,0.1093,0.1102,0.1109,0.1138,0.1148,0.1026,0.1026,0.1026,0,0.0536,0.057,0.0591,0.0614,0.0639,0.0679,0.0712,0.0744,0.081,0.0845,0.0861,0.0954,0.0965,0.1011,0.1028,0.1028,0.1053,0.1034,0.1099,0.1107,0.1114,0.1142,0.1152,0.1027,0.1027,0.1027,0.1027,0,0.056,0.0589,0.0603,0.0647,0.068,0.0714,0.0757,0.081,0.086,0.0894,0.0977,0.1004,0.1064,0.1061,0.1061,0.1116,0.112,0.1101,0.108,0.1125,0.1152,0.1162,0.103,0.1029,0.1029,0.1028,0,0,0.0549,0.0606,0.0616,0.0644,0.0701,0.0733,0.0793,0.0861,0.0915,0.098,0.1055,0.1096,0.1128,0.1146,0.115,0.1169,0.1226,0.1165,0.1166,0.1187,0.1309,0.1235,0.1239,0.1224,0.1226,0.1228,0.1306,0,0.0566,0.061,0.0643,0.0704,0.0733,0.0786,0.0844,0.0908,0.0971,0.1052,0.109,0.1159,0.1153,0.1189,0.1215,0.1226,0.1258,0.1208,0.1269,0.1272,0.1194,0.1249,0.1234,0.1314,0.1316,0.1318,0.1319,0,0.0582,0.0615,0.067,0.0741,0.0763,0.0815,0.0922,0.0975,0.1073,0.1122,0.1199,0.1237,0.1296,0.1277,0.1346,0.1322,0.1334,0.1332,0.1334,0.1269,0.1217,0.1262,0.1338,0.1337,0.1335,0.1334,0.1333,0,0.0568,0.0634,0.0686,0.0707,0.0793,0.0852,0.0915,0.1012,0.1072,0.1177,0.1237,0.1311,0.137,0.1398,0.1416,0.1393,0.1481,0.1437,0.1387,0.1381,0.1413,0.1404,0.1496,0.1496,0.1496,0.1496,0.1496,0,0.0565,0.0606,0.0693,0.0721,0.0798,0.0866,0.0968,0.1029,0.1144,0.1218,0.1286,0.1355,0.1408,0.1462,0.1457,0.1466,0.1522,0.1416,0.1403,0.142,0.1411,0.142,0.1411,0.1499,0.1498,0.1497,0.1497,0,0.053,0.0588,0.0643,0.0749,0.0791,0.085,0.0989,0.106,0.1168,0.1271,0.131,0.1418,0.1481,0.1518,0.156,0.1518,0.1518,0.1507,0.1545,0.1529,0.1389,0.1379,0.1455,0.1453,0.1452,0.145,0.1449,0,0.0512,0.054,0.0645,0.0693,0.0752,0.0856,0.0932,0.1056,0.113,0.1295,0.1339,0.145,0.1505,0.1515,0.1547,0.1549,0.1524,0.1518,0.1436,0.1408,0.1388,0.1381,0.1374,0.1447,0.1446,0.1446,0.1445,0,0.0473,0.0519,0.0565,0.0651,0.074,0.0829,0.0951,0.1003,0.1151,0.1252,0.1338,0.1379,0.1456,0.1475,0.1498,0.1487,0.151,0.1501,0.1503,0.1426,0.1399,0.1379,0.1374,0.144,0.1441,0.1441,0.1442,0,0.0441,0.0455,0.0524,0.0603,0.0697,0.0788,0.0861,0.097,0.1056,0.1235,0.1259,0.1363,0.1451,0.1447,0.1463,0.1454,0.1419,0.1353,0.1362,0.1369,0.1301,0.1251,0.1256,0,0,0,0,0,0.0399,0.0423,0.0479,0.0562,0.0653,0.0721,0.0866,0.0947,0.1088,0.112,0.1192,0.1251,0.1296,0.1346,0.1317,0.1417,0.1418,0.1378,0.1345,0.141,0.1416,0.1342,0,0,0,0,0,0,0.0373,0.0413,0.0447,0.0518,0.0575,0.0677,0.0773,0.0878,0.091,0.1043,0.1072,0.1163,0.1219,0.1287,0.1285,0.13,0.1253,0.144,0.1437,0.1407,0.1412,0.1417,0.1343,0,0,0,0,0]},{"header":{"parameterUnit":"m.s-1","parameterCategory":2,"la1":30.2991,"la2":30.254,"lo1":-89.0895,"lo2":-89.0444,"dx":0.0017,"dy":0.0017,"nx":28,"ny":28,"refTime":"2022-12-15T09:00:00:Z","depth":"4","parameterNumber":3,"parameterNumberName":"V-component_of_CURRENTS"},"data":[0,0,0,0,0,0,0,0,0,0,0,0,0,0,0,0,0,0,0,0,0,0,0,0,0,0,0,0,0,0,0,0,0,0,0,0,0,0,0,0,0,0,0,0,0,0,0,0,0,0,0,0,0,0,0,0,0,0,0.0435,0.0434,0,0.0388,0.0387,0.0387,0.035,0.0349,0.0349,0.0348,0.024,0.0238,0.0235,0,0,0,0,0,0,0,0,0,0,0,0,0,0.0465,0.0465,0.0435,0.0434,0.0433,0.0388,0.0387,0.0387,0.035,0.0349,0.0349,0.0348,0.0241,0.0238,0.0235,0,0,0,0,0,0,0,0,0,0,0,0,0,0.044,0.0465,0.0435,0.0408,0.0405,0.0388,0.0387,0.0387,0.035,0.0349,0.0349,0.0348,0.0242,0.0238,0.0235,0.0227,0,0,0.0223,0.0222,0,0,0,0,0,0,0,0,0.0441,0.0439,0.0413,0.041,0.0407,0.0372,0.0358,0.033,0.035,0.0373,0.0348,0.0347,0.0278,0.0271,0.0267,0.0222,0.0217,0.0223,0.0221,0.0219,0.0218,0,0,0,0,0,0,0,0.0443,0.044,0.0418,0.0412,0.0409,0.0389,0.0385,0.0353,0.033,0.0371,0.0368,0.036,0.0276,0.0271,0.0264,0.0216,0.0223,0.022,0.0218,0.0216,0.0113,0.0113,0,0,0,0,0,0,0.0448,0.0442,0.0419,0.0416,0.0421,0.0389,0.0385,0.0386,0.0332,0.0323,0.0361,0.0358,0.0278,0.0269,0.026,0.0224,0.0219,0.0216,0.0214,0.0114,0.0113,0.0113,0,0,0,0,0,0,0.0449,0.0447,0.0421,0.0426,0.0421,0.0389,0.0391,0.0385,0.0373,0.0325,0.0315,0.0353,0.0277,0.0265,0.0223,0.022,0.0214,0.0211,0.0114,0.0114,0.0113,0.0165,0,0,0,0,0,0,0.045,0.0448,0.0452,0.0427,0.0421,0.0405,0.0391,0.0385,0.0369,0.0366,0.0315,0.0305,0.0275,0.0229,0.022,0.0215,0.0208,0.0115,0.0114,0.0113,0.0164,0.0167,0.0168,0,0,0,0,0,0.0452,0.0457,0.0453,0.045,0.0428,0.0405,0.04,0.0376,0.037,0.0363,0.0328,0.0306,0.0215,0.0226,0.0215,0.0209,0.0116,0.0114,0.0113,0.0164,0.0166,0.0168,0,0,0,0,0,0,0.047,0.0453,0.0448,0.0448,0.0426,0.0398,0.0393,0.0377,0.0348,0.0343,0.0301,0.0288,0.0249,0.022,0.0232,0.0174,0.0161,0.0157,0.0203,0.0205,0.0207,0.0212,0.0205,0,0,0,0,0,0.0478,0.0478,0.0455,0.0454,0.0448,0.0423,0.0412,0.0393,0.0363,0.035,0.0314,0.0273,0.0237,0.0214,0.0176,0.0148,0.0115,0.0134,0.0136,0.0138,0.0134,0.0088,0.0086,0.0108,0.0108,0.0108,0,0,0.0486,0.0474,0.0475,0.0457,0.0444,0.0435,0.0415,0.0397,0.0385,0.0342,0.0314,0.0277,0.023,0.0197,0.0176,0.0171,0.0115,0.0137,0.0139,0.0133,0.0086,0.0084,0.0082,0.0108,0.0108,0.0108,0,0,0.0495,0.0493,0.0495,0.0482,0.0458,0.0441,0.0437,0.0406,0.0391,0.0359,0.0326,0.0288,0.0233,0.0201,0.0178,0.0166,0.0126,0.0151,0.0166,0.0122,0.012,0.0118,0.008,0.0074,0.0153,0.0153,0.0153,0,0.0502,0.0505,0.049,0.0487,0.0477,0.0447,0.0443,0.0425,0.038,0.0366,0.0353,0.0271,0.0236,0.0195,0.0191,0.0172,0.0139,0.0167,0.0127,0.0124,0.012,0.0082,0.0075,0.0155,0.0155,0.0155,0.0155,0,0.0511,0.0514,0.0514,0.0503,0.049,0.048,0.0454,0.0437,0.0415,0.0388,0.0342,0.0293,0.0242,0.0229,0.0207,0.0167,0.0149,0.0137,0.0127,0.0122,0.0081,0.0073,0.0159,0.0158,0.0157,0.0157,0,0,0.0521,0.0522,0.0521,0.0524,0.0498,0.0488,0.0474,0.0448,0.0436,0.039,0.0365,0.0309,0.0276,0.0247,0.0212,0.0178,0.0137,0.0151,0.0148,0.0124,0.0038,0.004,0.003,0.0117,0.0116,0.0115,0.0021,0,0.053,0.0538,0.053,0.0531,0.0534,0.0509,0.0503,0.0474,0.0439,0.0406,0.0355,0.0315,0.0285,0.0261,0.022,0.0155,0.0115,0.0163,0.0036,0.0032,0.0043,0.0021,0.0111,0.0015,0.0012,0.0011,0.001,0,0.0538,0.0543,0.0556,0.0556,0.0556,0.0553,0.0532,0.0517,0.0468,0.0442,0.0385,0.0337,0.0275,0.0255,0.0138,0.0168,0.0103,0.0056,0.0051,0.0027,0.0018,0.0016,-0.0006,-0.0005,-0.0003,-0.0002,-0.0001,0,0.0553,0.0558,0.0572,0.0571,0.0569,0.0572,0.0564,0.0528,0.0517,0.0457,0.0435,0.0348,0.0305,0.0213,0.0111,0.0118,-0.0016,-0.0018,-0.008,-0.0081,-0.0075,-0.0072,-0.0107,-0.0107,-0.0106,-0.0106,-0.0106,0,0.0561,0.0572,0.0587,0.0595,0.0614,0.0598,0.0602,0.0581,0.0546,0.0531,0.0453,0.0417,0.0292,0.02,0.0108,-0.0014,-0.0025,-0.0088,-0.0109,-0.0051,-0.0044,-0.0081,-0.0077,-0.011,-0.0109,-0.0108,-0.0108,0,0.0569,0.0582,0.0602,0.0615,0.0626,0.0635,0.0639,0.0636,0.0601,0.0576,0.0559,0.0459,0.0341,0.0212,0.006,-0.0013,-0.0128,-0.0169,-0.0099,-0.0113,-0.0164,-0.0156,-0.025,-0.025,-0.0251,-0.0252,-0.0252,0,0.0571,0.0588,0.0622,0.0643,0.0653,0.067,0.0687,0.0668,0.0662,0.0603,0.0593,0.0477,0.0398,0.0186,0.0049,-0.0138,-0.016,-0.0221,-0.0194,-0.0169,-0.0181,-0.0172,-0.0163,-0.0253,-0.0253,-0.0254,-0.0254,0,0.0573,0.0594,0.0614,0.0663,0.0693,0.0721,0.0739,0.074,0.0715,0.0685,0.0616,0.0496,0.0359,0.0193,0.004,-0.009,-0.018,-0.0229,-0.0228,-0.0203,-0.0175,-0.0183,-0.0174,-0.0256,-0.0256,-0.0256,-0.0256,0,0.0577,0.0595,0.0635,0.0674,0.0719,0.0759,0.0765,0.076,0.0752,0.0689,0.0666,0.0514,0.0421,0.0216,0.008,-0.0054,-0.0083,-0.0114,-0.012,-0.0119,-0.0051,0.0007,-0.0046,0,0,0,0,0,0.0573,0.0605,0.0643,0.0694,0.0739,0.0776,0.0796,0.0796,0.0776,0.0737,0.0701,0.0576,0.0359,0.0261,0.0128,0.0065,-0.0108,-0.0096,-0.0147,-0.0269,-0.0267,-0.0208,0,0,0,0,0,0,0.0577,0.0617,0.0642,0.0704,0.075,0.0806,0.0829,0.0818,0.0791,0.0748,0.0636,0.056,0.035,0.0447,0.0136,0.0091,0.0043,-0.0203,-0.0206,-0.0271,-0.0269,-0.0266,-0.0206,0,0,0,0,0]}]]